User: anonymous   Login
Location: Unspecified
(0.0000°N, 0.0000°E)
Time: 01:06:58
(UTC+00:00)
Language:

STARLINK-11201 [DTC] - Orbit

View from above orbital plane
View from above orbital plane
View from above satellite
View from above satellite

Ground track
Ground track

The orbit is defined by the following mean orbital elements,

1 60113U          26145.44061476 +.00000000 +00000-0 +32631-5 0 00004
2 60113  53.1586 203.2225 0001034  76.5922 283.5211 15.69696531    09
Epoch (UTC): 25 May 2026 10:34:29
Eccentricity: 0.0001034
inclination: 53.1586°
perigee height: 359 km
apogee height: 360 km
right ascension of ascending node: 203.2225°
argument of perigee: 76.5922°
revolutions per day: 15.69696531
mean anomaly at epoch: 283.5211°

The dashed part of the orbit path shows where the satellite is in the earth's shadow,  

DLR